Location: Red Bud (historical)
(37.7759°N, 88.4053°W)
Time: 22:50:30
(UTC+00:00)

Cosmos 968 Rocket - Pass Details

Date: 29 October 2020
Orbit: 741 x 770 km, 74.0° (Epoch: 28 November)

Event Time Altitude Azimuth Distance (km) Brightness Sun altitude
Rises 23:18:21 0° 353° (N) 3,231 6.7 -4.8°
Reaches altitude 10° 23:21:06 10° 6° (N) 2,296 5.8 -5.3°
Maximum altitude 23:25:28 27° 63° (ENE) 1,440 4.4 -6.1°
Drops below altitude 10° 23:29:46 10° 120° (ESE) 2,268 5.5 -7.0°
Sets 23:32:27 0° 133° (SE) 3,183 6.4 -7.5°
